Location: ?estice
(49.1682°N, 13.8057°E)
Time: 15:26:14
(UTC+00:00)

Daily predictions for brighter satellites

Satellite Brightness Start Highest point End
(mag) Time Altitude Azimuth Time Altitude Azimuth Time Altitude Azimuth
CZ-4C R/B 3.0 15:27:35 10° NW 15:34:30 63° NE 15:42:41 10° ESE
ATLAS 2AS CENTAUR R/B 4.1 15:30:11 10° WNW 15:36:36 28° N 15:42:46 10° NE
ADEOS 3.7 15:32:24 10° SSE 15:37:38 87° WSW 15:42:54 10° NNW
Cosmos 841 Rocket 4.0 15:33:11 10° S 15:37:56 39° ESE 15:42:43 10° NE
Cosmos 2034 Rocket 4.0 15:32:13 10° S 15:38:21 75° E 15:44:31 10° NNE
Cosmos 1697 Rocket 3.0 15:36:22 10° NNW 15:41:59 74° WSW 15:47:35 10° SSE
Cosmos 1743 Rocket 3.5 15:37:39 10° N 15:42:00 83° E 15:46:20 10° S
USA 307 3.4 15:38:32 10° WNW 15:42:39 44° N 15:46:44 10° E
Cosmos 372 Rocket 4.1 15:38:43 10° NNW 15:43:55 59° ENE 15:49:06 10° SE
Cosmos 2322 Rocket 3.4 15:39:50 10° N 15:44:12 22° NE 15:48:32 10° E
Meteor PRIRODA 3.6 15:41:14 10° SSE 15:44:47 57° ENE 15:48:21 10° N
CZ-4C R/B 3.1 15:40:59 10° NNE 15:44:47 83° ESE 15:48:22 10° SSW
SJ 16-02 4.4 15:42:49 10° WNW 15:45:13 15° W 15:47:39 10° SW
ERBS 3.9 15:42:46 10° WNW 15:45:17 20° N 15:47:47 10° NE
Cosmos 1937 Rocket 3.6 15:39:57 10° NNW 15:45:19 88° ENE 15:50:38 10° SSE
USA 234 3.4 15:40:10 10° E 15:46:36 62° NNE 15:53:02 10° WNW
Lacrosse 5 rocket 1.4 15:42:51 10° NW 15:46:37 52° NNE 15:50:36 10° ESE
Cosmos 1980 Rocket 2.2 15:42:30 10° NNW 15:48:12 70° ENE 15:53:48 10° SE
Cosmos 2026 Rocket 4.0 15:46:11 10° N 15:52:15 60° ENE 15:58:13 10° SSE
Cosmos 1666 Rocket 4.2 15:49:06 10° N 15:53:08 33° ENE 15:57:06 10° SE
NOSS 2-2 (D) 4.5 15:48:06 10° NW 15:53:12 85° SW 16:00:26 10° SE
Cosmos 1809 Rocket 4.4 15:47:52 10° N 15:53:58 69° ENE 16:00:01 10° SSE
Cosmos 1125 Rocket 4.5 15:50:04 10° N 15:54:27 26° NE 15:58:50 10° ESE
CORIOLIS 4.4 15:50:03 10° SE 15:55:12 48° ENE 16:00:26 10° N
Cosmos 1634 Rocket 4.3 15:49:14 10° SSE 15:55:18 51° E 16:01:23 10° NNE
Cosmos 2195 Rocket 4.5 15:50:42 10° N 15:56:53 76° E 16:03:07 10° SSE
H-2A R/B 2.7 15:55:06 10° SE 15:59:33 32° ENE 16:03:56 10° N
Cosmos 2369 3.9 15:54:04 10° NNW 15:59:50 81° WSW 16:05:33 10° SSE
Cosmos 1812 3.6 15:58:58 10° SSE 16:02:21 30° E 16:05:45 10° NNE
PSLV R/B 4.4 16:00:24 10° SE 16:03:42 31° ENE 16:07:04 10° N
ATLAS CENTAUR R/B 3.8 16:02:03 10° NW 16:04:24 14° NNW 16:06:50 10° NNE
Okean O Rocket 2.9 16:01:28 10° ESE 16:04:37 19° ENE 16:07:47 10° NNE
Cosmos 2221 4.0 16:00:58 10° SW 16:04:56 37° WNW 16:08:59 10° N
SL-16 R/B 2.8 16:00:04 10° NNW 16:05:12 33° NE 16:10:18 10° ESE
USA 308 3.3 16:01:17 10° WNW 16:05:26 48° NNE 16:09:19 12° E
CZ-2C R/B 3.0 16:01:33 10° S 16:06:22 79° WSW 16:11:09 10° NNW
Sich 1 2.9 16:04:35 10° N 16:08:55 79° E 16:13:15 10° SSE
Cosmos 2082 Rocket 2.3 16:03:25 10° SSW 16:09:00 62° ESE 16:14:36 10° NE
Cosmos 540 Rocket 3.5 16:04:51 10° SSW 16:09:57 89° WNW 16:15:07 10° NNE
ARGOS 4.0 16:06:14 10° ESE 16:10:43 27° ENE 16:15:11 10° N
Meteor 1-5 Rocket 4.5 16:05:01 10° N 16:10:51 51° ENE 16:16:34 10° SSE
FengYun 1-2 T 4.2 16:08:33 10° SSE 16:14:07 88° ENE 16:19:42 10° NNW
COSMOS 2455 2.9 16:09:37 10° SSW 16:15:38 81° ESE 16:21:43 10° NE
SMAP 3.0 16:12:11 10° SSE 16:16:50 76° ENE 16:21:31 10° N
NOAA 6 4.0 16:13:11 10° SSE 16:18:19 78° ENE 16:23:28 10° NNW
deb Chang Zheng 4 4.4 16:16:55 10° ESE 16:20:35 28° ENE 16:24:17 10° N
Cosmos 1805 Rocket 4.1 16:17:08 10° NNW 16:21:25 61° W 16:25:41 10° S
Cosmos 1933 3.8 16:18:06 10° SSW 16:22:06 64° WNW 16:26:08 10° N
Cosmos 2278 3.7 16:16:34 10° NNW 16:22:20 89° ENE 16:28:01 10° SSE
Cosmos 1833 Rocket 3.3 16:16:55 10° SW 16:22:26 56° WNW 16:28:01 10° NNE
Cosmos 2333 Rocket 3.7 16:20:26 10° N 16:24:17 18° NE 16:26:02 16° ENE
CZ-4B DEB 4.1 16:21:59 10° SSE 16:27:28 73° ENE 16:32:57 10° NNW
CZ-2C R/B 3.3 16:25:19 10° NNE 16:29:51 30° E 16:34:22 10° SSE
USA 305 3.0 16:25:42 10° WNW 16:29:54 59° NNE 16:32:52 19° E
Cosmos 1655 Rocket 4.4 16:25:22 10° N 16:31:26 43° ENE 16:37:26 10° SE
Cosmos 1356 Rocket 4.3 16:28:42 10° N 16:32:21 28° ENE 16:36:01 10° SE
Cosmos 2219 Rocket 3.7 16:28:50 10° N 16:32:22 16° NE 16:33:20 16° NE
CZ-4B R/B 4.1 16:29:15 10° S 16:32:59 42° W 16:36:35 10° NNW
Cosmos 1500 3.8 16:30:55 10° NNW 16:34:36 58° W 16:38:15 10° S
Meteor 1-14 Rocket 4.3 16:29:01 10° N 16:34:55 83° ENE 16:40:53 10° SSE
Cosmos 44 Rocket 3.2 16:31:41 10° NW 16:36:40 90° E 16:41:27 10° SE
Meteor 2-16 Rocket 4.4 16:32:58 10° N 16:39:08 80° E 16:45:16 10° SSE
Cosmos 1515 Rocket 4.3 16:37:42 10° SSE 16:41:35 30° E 16:43:15 23° NE
COSMOS 2406 3.9 16:36:29 10° SW 16:42:06 53° NW 16:47:43 10° NNE
Cosmos 1814 Rocket 3.9 16:37:36 10° SSW 16:42:49 83° ESE 16:47:38 12° NNE
Cosmos 921 Rocket 3.4 16:40:01 10° S 16:43:58 41° ESE 16:45:57 25° NE
Cosmos 1570 Rocket 3.9 16:44:26 10° SSW 16:49:41 83° ESE 16:54:14 14° NNE
MOS 1-B Rocket 4.1 16:45:13 10° NNE 16:51:12 63° ESE 16:58:04 10° S
CZ-4B R/B 3.1 16:48:13 10° SSE 16:53:33 66° ENE 16:58:50 10° N
USA 267 3.2 16:50:26 22° ENE 16:55:00 80° SE 17:01:32 10° SW
Cosmos 2298 Rocket 3.9 16:49:48 10° NNW 16:55:10 77° ENE 17:00:30 10° SSE
Cosmos 371 Rocket 4.3 16:51:25 10° N 16:55:08 26° NE 16:55:08 26° NE
CZ-2D R/B 3.3 16:52:06 10° S 16:55:55 78° W 16:59:45 10° NNW
MOS 1-B 4.3 16:52:39 10° SSE 16:58:26 88° WSW 17:04:16 10° NNW
ATLAS CENTAUR R/B 2.9 16:51:16 10° WSW 16:59:33 58° NNW 17:01:30 29° NE
COSMO-SKYMED 1 2.7 16:59:10 28° NE 17:01:12 50° E 17:05:26 10° S
Cosmos 1633 Rocket 3.4 16:57:13 10° NNW 17:01:34 66° W 17:05:54 10° S
Cosmos 1151 Rocket 3.3 16:57:38 10° SSW 17:01:58 70° WNW 17:06:21 10° N
Meteor 1-27 Rocket 4.1 16:57:09 10° SSE 17:02:09 37° E 17:04:00 29° NE
USA 306 2.8 16:58:00 10° WNW 17:02:16 78° NNE 17:03:51 37° ESE
Cosmos 1666 3.6 16:59:41 10° NNW 17:03:18 49° W 17:06:53 10° S
Cosmos 1782 4.5 17:00:34 10° SW 17:04:12 34° WNW 17:07:52 10° N
Landsat 5 4.1 17:05:04 33° ESE 17:05:04 33° ESE 17:08:06 10° SSE
APEX 3.2 17:01:05 10° S 17:04:23 44° SE 17:04:23 44° SE
Meteor 2-6 Rocket 4.1 16:59:19 10° S 17:05:01 82° E 17:10:36 10° NNE
Cosmos 2360 Rocket 2.5 17:00:52 10° NNW 17:06:16 43° NE 17:08:17 31° E
SJ-11-01 4.2 17:01:42 10° SSE 17:06:25 69° ENE 17:11:08 10° N
ISS -0.5 17:05:50 10° WSW 17:07:13 12° SW 17:08:35 10° SSW
YAOGAN 1 3.9 17:11:21 23° NNE 17:11:21 23° NNE 17:13:20 10° N
Cosmos 1900 4.3 17:04:33 10° SW 17:09:25 82° NW 17:11:53 30° NNE
Cosmos 2237 4.2 17:03:57 10° NNW 17:09:36 58° ENE 17:13:44 18° SE
Cosmos 1818 4.3 17:06:46 10° NW 17:12:06 54° WSW 17:17:23 10° SSE
CZ-2C R/B 3.8 17:16:10 10° SSW 17:17:41 12° S 17:19:11 10° SSE
Cosmos 2279 Rocket 4.3 17:11:55 10° SSW 17:18:05 67° WNW 17:24:17 10° N
Cosmos 1536 4.4 17:14:54 10° N 17:16:30 22° N 17:16:30 22° N
ATLAS 5 CENTAUR R/B 1.6 17:12:31 10° NW 17:19:08 87° NE 17:19:39 62° SE
Meteor 2-15 4.3 17:14:16 10° S 17:20:22 85° E 17:26:29 10° N
Cosmos 2266 Rocket 4.0 17:14:15 10° N 17:20:42 85° E 17:27:08 10° S
ERBS 4.2 17:19:13 10° NW 17:20:46 20° NNW 17:20:46 20° NNW
USA 307 2.8 17:18:34 10° WNW 17:22:50 89° SSW 17:23:33 61° ESE
CZ-4C R/B 4.1 17:16:15 10° NW 17:23:08 44° WSW 17:31:01 10° S
SL-08 RB Rocket 3.6 17:20:30 10° SSE 17:25:06 72° ENE 17:29:41 10° N
SKYMED 3 4.4 17:23:34 35° NNE 17:25:23 87° ESE 17:29:44 10° SSW
Lacrosse 5 rocket 2.8 17:22:02 10° WNW 17:25:37 34° SW 17:28:57 12° SSE
NOSS 3-4 (A) 4.2 17:21:00 10° NW 17:27:19 42° NNE 17:28:52 38° ENE
NOSS 3-4 (C) 4.2 17:21:06 10° NW 17:27:25 42° NNE 17:28:56 37° ENE
Cosmos 1933 Rocket 3.4 17:24:21 10° N 17:28:43 90° NE 17:33:04 10° S
Cosmos 2322 Rocket 2.1 17:23:19 10° NNW 17:29:05 88° ENE 17:34:48 10° SSE
Cosmos 2208 Rocket 4.5 17:23:43 10° SW 17:29:05 62° WNW 17:32:51 20° NNE
USA 234 3.7 17:23:12 10° SE 17:29:40 61° SW 17:36:08 10° WNW
ATLAS 2AS CENTAUR R/B 3.7 17:23:22 10° NW 17:29:54 30° NNE 17:31:18 28° NE
COSMOS 2428 4.0 17:25:15 10° NNW 17:28:44 24° NNE 17:28:44 24° NNE
Cosmos 2150 Rocket 4.5 17:25:34 10° NNW 17:30:41 60° WSW 17:35:50 10° S
Cosmos 1328 Rocket 4.4 17:27:48 10° SSW 17:32:06 49° WNW 17:36:01 12° N
NOAA 15 4.5 17:28:47 10° SSE 17:34:00 66° ENE 17:39:14 10° N
Cosmos 1470 Rocket 4.4 17:30:22 10° NNW 17:34:42 51° W 17:39:02 10° S
Cosmos 1544 3.7 17:31:18 10° NNW 17:34:51 54° W 17:38:23 10° S
Cosmos 1125 Rocket 4.1 17:31:45 10° NNW 17:36:54 58° WSW 17:42:04 10° S
Cosmos 1867 3.6 17:32:55 10° SSW 17:38:15 57° ESE 17:38:27 57° ESE
NOSS 3-3 (A) 4.2 17:33:09 10° S 17:38:22 44° ESE 17:38:22 44° ESE
NOSS 3-3 (C) 4.2 17:33:15 10° S 17:38:27 44° ESE 17:38:27 44° ESE
H-2A R/B 3.3 17:34:05 10° SSW 17:38:53 40° W 17:43:36 10° NNW
X-37B 3.1 17:36:58 10° SW 17:37:49 16° SSW 17:37:49 16° SSW
Okean O Rocket 2.1 17:36:09 10° S 17:40:33 60° WSW 17:45:00 10° NNW
GEOS 3 Rocket 3.7 17:41:55 55° NE 17:41:55 55° NE 17:46:55 10° NW
Meteor 1-11 Rocket 3.9 17:36:18 10° NNW 17:41:56 72° W 17:47:40 10° S
Meteor 1-10 Rocket 4.4 17:36:28 10° SSW 17:42:12 71° WNW 17:47:11 14° N
USA 32 3.9 17:38:48 10° S 17:44:02 85° E 17:46:22 34° N
ATLAS CENTAUR R/B 4.0 17:43:03 10° NNW 17:44:13 12° N 17:44:13 12° N
USA 308 3.1 17:41:16 10° WNW 17:45:21 68° SW 17:45:21 68° SW
SKYMED 2 4.2 17:47:47 36° NNW 17:49:18 55° WNW 17:53:32 10° SSW
SL-16 R/B 3.0 17:44:03 10° NW 17:49:32 52° WSW 17:55:00 10° S
ARGOS 3.8 17:45:23 10° S 17:50:41 54° W 17:55:59 10° NNW
Cosmos 2237 Rocket 4.2 17:47:42 10° N 17:49:03 14° N 17:49:03 14° N
Cosmos 2082 Rocket 3.8 17:48:37 10° WSW 17:53:29 29° NW 17:56:57 17° N
Cosmos 1241 Rocket 4.3 17:55:27 10° SSW 18:01:48 73° ESE 18:01:58 73° ESE
COSMOS 2455 4.4 17:57:05 10° W 18:02:15 29° NW 18:04:54 21° N
USA 305 4.2 18:05:40 10° WNW 18:08:52 38° WSW 18:08:52 38° WSW
Cosmos 2333 Rocket 2.8 18:03:58 10° NNW 18:08:05 45° N 18:08:05 45° N
CZ-2C R/B 3.6 18:06:50 18° N 18:10:18 43° WNW 18:15:09 10° SW
Cosmos 2219 Rocket 3.3 18:11:55 10° NNW 18:15:05 33° N 18:15:05 33° N
Aureole 3 Rocket 4.2 18:13:50 10° SSW 18:18:30 58° WNW 18:25:10 10° N
Nadezhda 2 Rocket 4.5 18:17:44 10° N 18:24:12 82° W 18:24:23 81° SW
USA 267 3.6 18:37:47 54° NNW 18:37:51 54° NNW 18:44:09 10° W
Cosmos 2360 Rocket 3.4 18:45:02 10° NW 18:50:08 38° WSW 18:50:08 38° WSW
ATLAS 2AS CENTAUR R/B 4.1 19:14:52 10° NW 19:18:45 33° NNW 19:18:45 33° NNW
